[[{"header":{"parameterUnit":"m.s-1","parameterCategory":1,"la1":30.2991,"la2":30.254,"lo1":-89.0895,"lo2":-89.0444,"dy":0.0017,"dx":0.0017,"nx":28,"ny":28,"refTime":"2025-06-22T09:00:00:Z","depth":0,"parameterNumber":2,"parameterNumberName":"U-component_of_WINDS"},"data":[0,0,0,0,0,0,0,0,0,0,0,0,0,0,0,0,0,0,0,0,0,0,0,0,0,0,0,0,0,0,0,0,0,0,0,0,0,0,0,0,0,0,0,0,0,0,0,0,0,0,0,0,0,0,0,0,0,0,-1.5893,-1.5892,0,-1.5876,-1.5876,-1.5876,-1.585,-1.585,-1.5849,-1.5849,-1.5832,-1.5832,-1.5832,0,0,0,0,0,0,0,0,0,0,0,0,0,-1.5901,-1.5901,-1.5893,-1.5892,-1.5892,-1.5876,-1.5876,-1.5876,-1.585,-1.585,-1.5849,-1.5849,-1.5832,-1.5832,-1.5832,0,0,0,0,0,0,0,0,0,0,0,0,0,-1.5893,-1.5901,-1.5893,-1.5877,-1.5876,-1.5876,-1.5876,-1.5876,-1.585,-1.585,-1.5849,-1.5848,-1.5832,-1.5832,-1.5832,-1.5846,0,0,-1.5832,-1.5832,0,0,0,0,0,0,0,0,-1.5893,-1.5892,-1.588,-1.5878,-1.5877,-1.5865,-1.5873,-1.5866,-1.5851,-1.586,-1.5849,-1.5848,-1.5843,-1.5842,-1.5841,-1.5845,-1.5845,-1.5832,-1.5832,-1.5832,-1.5832,0,0,0,0,0,0,0,-1.5894,-1.5893,-1.5886,-1.588,-1.5878,-1.5871,-1.5869,-1.5872,-1.5856,-1.5859,-1.5857,-1.5856,-1.5842,-1.5841,-1.584,-1.5844,-1.5832,-1.5832,-1.5832,-1.5832,-1.5859,-1.586,0,0,0,0,0,0,-1.5897,-1.5894,-1.5887,-1.5886,-1.5883,-1.5872,-1.587,-1.5869,-1.5856,-1.5853,-1.5856,-1.5855,-1.5841,-1.584,-1.584,-1.5855,-1.5832,-1.5832,-1.5832,-1.5858,-1.5859,-1.586,0,0,0,0,0,0,-1.5897,-1.5896,-1.5887,-1.5889,-1.5887,-1.5872,-1.5872,-1.5869,-1.5868,-1.5854,-1.5851,-1.5858,-1.5841,-1.584,-1.5845,-1.5854,-1.5832,-1.5832,-1.5857,-1.5859,-1.586,-1.5885,0,0,0,0,0,0,-1.5897,-1.5897,-1.5902,-1.5889,-1.5887,-1.5892,-1.5873,-1.5869,-1.5868,-1.5865,-1.5854,-1.5852,-1.584,-1.5845,-1.5845,-1.5853,-1.5832,-1.5856,-1.5858,-1.5859,-1.5883,-1.5887,-1.589,0,0,0,0,0,-1.5898,-1.5909,-1.5902,-1.5901,-1.5893,-1.5893,-1.5892,-1.5878,-1.5869,-1.5874,-1.5865,-1.5852,-1.5853,-1.5845,-1.5845,-1.5854,-1.5856,-1.5857,-1.5859,-1.5882,-1.5886,-1.589,0,0,0,0,0,0,-1.5923,-1.5908,-1.5899,-1.5907,-1.5902,-1.5889,-1.5894,-1.5884,-1.5881,-1.5878,-1.5862,-1.586,-1.5867,-1.5861,-1.5853,-1.5867,-1.5852,-1.5854,-1.587,-1.5874,-1.5877,-1.5878,-1.5832,0,0,0,0,0,-1.593,-1.5931,-1.5917,-1.5926,-1.5923,-1.591,-1.5909,-1.5899,-1.5893,-1.589,-1.5881,-1.5876,-1.5874,-1.5874,-1.5872,-1.5883,-1.588,-1.5889,-1.5892,-1.5895,-1.5896,-1.5901,-1.5905,-1.5865,-1.5865,-1.5865,0,0,-1.5943,-1.5935,-1.5936,-1.593,-1.5925,-1.5926,-1.5908,-1.591,-1.591,-1.589,-1.5894,-1.5888,-1.588,-1.5888,-1.5891,-1.5883,-1.5907,-1.5897,-1.5899,-1.5899,-1.5903,-1.5907,-1.591,-1.5866,-1.5866,-1.5866,0,0,-1.5968,-1.5962,-1.5968,-1.5963,-1.5955,-1.5946,-1.5948,-1.5937,-1.5932,-1.5935,-1.592,-1.5921,-1.592,-1.5915,-1.5912,-1.5936,-1.5924,-1.5936,-1.5953,-1.5958,-1.5961,-1.5964,-1.5971,-1.5975,-1.5937,-1.5938,-1.5938,0,-1.5986,-1.5987,-1.5973,-1.5976,-1.5974,-1.5956,-1.5962,-1.5958,-1.595,-1.5949,-1.5941,-1.5939,-1.5932,-1.5938,-1.5944,-1.5943,-1.5944,-1.5937,-1.5962,-1.5964,-1.5966,-1.5974,-1.5977,-1.5939,-1.5939,-1.5939,-1.5939,0,-1.6009,-1.601,-1.6016,-1.6009,-1.6007,-1.6012,-1.5999,-1.5999,-1.599,-1.5982,-1.5986,-1.5978,-1.5974,-1.5975,-1.5966,-1.5979,-1.5975,-1.5965,-1.595,-1.5972,-1.5978,-1.5981,-1.5941,-1.5941,-1.594,-1.594,0,0,-1.6049,-1.6034,-1.6036,-1.6033,-1.6023,-1.6023,-1.6027,-1.6024,-1.6024,-1.6019,-1.6022,-1.6022,-1.6012,-1.6009,-1.5999,-1.6004,-1.6022,-1.5992,-1.5992,-1.5998,-1.6037,-1.6044,-1.6048,-1.6015,-1.6015,-1.6016,-1.6037,0,-1.6071,-1.6077,-1.6065,-1.6073,-1.6074,-1.6057,-1.6061,-1.6055,-1.6048,-1.6047,-1.6039,-1.6039,-1.6026,-1.6024,-1.6028,-1.6019,-1.603,-1.6018,-1.6017,-1.6017,-1.6018,-1.6051,-1.6059,-1.608,-1.604,-1.604,-1.6041,0,-1.6098,-1.6094,-1.6103,-1.6093,-1.6093,-1.6096,-1.6092,-1.6092,-1.6085,-1.6079,-1.6076,-1.6065,-1.6068,-1.6055,-1.6058,-1.6051,-1.605,-1.6045,-1.6046,-1.6044,-1.603,-1.605,-1.6086,-1.6089,-1.6045,-1.6044,-1.6044,0,-1.6125,-1.6123,-1.6128,-1.6125,-1.6113,-1.6116,-1.6111,-1.6104,-1.6103,-1.6099,-1.6098,-1.6095,-1.6093,-1.6091,-1.6079,-1.607,-1.6084,-1.607,-1.6079,-1.608,-1.6082,-1.6082,-1.6117,-1.6083,-1.6083,-1.6083,-1.6083,0,-1.6151,-1.6157,-1.614,-1.6143,-1.6149,-1.6135,-1.6141,-1.6135,-1.6129,-1.613,-1.6116,-1.6117,-1.6102,-1.6102,-1.6093,-1.6097,-1.6096,-1.6092,-1.6089,-1.6093,-1.6093,-1.6091,-1.6089,-1.6084,-1.6083,-1.6083,-1.6083,0,-1.6182,-1.6171,-1.6175,-1.6164,-1.6161,-1.6166,-1.6156,-1.6158,-1.615,-1.6152,-1.6152,-1.6139,-1.6138,-1.6127,-1.6123,-1.6117,-1.6125,-1.612,-1.6127,-1.6125,-1.6135,-1.6134,-1.617,-1.6174,-1.6137,-1.6138,-1.6138,0,-1.6199,-1.6203,-1.6192,-1.6192,-1.6188,-1.6188,-1.6187,-1.6173,-1.6173,-1.6165,-1.6168,-1.6167,-1.6164,-1.6164,-1.6154,-1.6151,-1.6146,-1.6158,-1.6145,-1.6148,-1.6145,-1.6145,-1.6145,-1.6161,-1.6161,-1.6162,-1.6162,0,-1.623,-1.6224,-1.6223,-1.622,-1.6218,-1.6215,-1.6211,-1.6212,-1.6197,-1.6197,-1.6196,-1.6194,-1.6191,-1.6189,-1.6184,-1.6179,-1.6168,-1.6167,-1.6168,-1.6172,-1.6175,-1.6173,-1.6134,-1.6166,-1.6165,-1.6165,-1.6165,-1.6165,-1.6254,-1.6257,-1.625,-1.6248,-1.6244,-1.624,-1.6242,-1.6234,-1.6233,-1.6229,-1.6222,-1.6222,-1.6215,-1.6208,-1.6204,-1.6204,-1.6197,-1.62,-1.6201,-1.6202,-1.6203,-1.6176,-1.6203,-1.6203,-1.6203,-1.6203,-1.6203,0,-1.6284,-1.6278,-1.6277,-1.6272,-1.6271,-1.6261,-1.6256,-1.6256,-1.6256,-1.6251,-1.6249,-1.6248,-1.6246,-1.6237,-1.6234,-1.6235,-1.623,-1.6235,-1.6234,-1.6233,-1.621,-1.6208,-1.6239,-1.6239,-1.6239,-1.6239,-1.6239,-1.6239,-1.6299,-1.6303,-1.6297,-1.6298,-1.6293,-1.6293,-1.6291,-1.6288,-1.6283,-1.6283,-1.6281,-1.6275,-1.6268,-1.6264,-1.6262,-1.626,-1.6259,-1.6265,-1.6261,-1.6239,-1.6235,-1.6232,-1.623,-1.6265,-1.6265,-1.6284,-1.6285,-1.6285]},{"header":{"parameterUnit":"m.s-1","parameterCategory":1,"la1":30.2991,"la2":30.254,"lo1":-89.0895,"lo2":-89.0444,"dy":0.0017,"dx":0.0017,"nx":28,"ny":28,"refTime":"2025-06-22T09:00:00:Z","depth":0,"parameterNumber":3,"parameterNumberName":"V-component_of_WINDS"},"data":[0,0,0,0,0,0,0,0,0,0,0,0,0,0,0,0,0,0,0,0,0,0,0,0,0,0,0,0,0,0,0,0,0,0,0,0,0,0,0,0,0,0,0,0,0,0,0,0,0,0,0,0,0,0,0,0,0,0,1.3378,1.3377,0,1.3334,1.3334,1.3333,1.3184,1.3181,1.3178,1.3174,1.3135,1.3137,1.3139,0,0,0,0,0,0,0,0,0,0,0,0,0,1.3337,1.3338,1.3378,1.3377,1.3376,1.3334,1.3334,1.3333,1.3185,1.3181,1.3177,1.3173,1.3134,1.3137,1.3139,0,0,0,0,0,0,0,0,0,0,0,0,0,1.333,1.3339,1.3378,1.3297,1.329,1.3334,1.3334,1.3333,1.3186,1.3181,1.3176,1.3171,1.3134,1.3137,1.314,1.326,0,0,1.3149,1.3151,0,0,0,0,0,0,0,0,1.3331,1.3332,1.331,1.3303,1.3294,1.3259,1.3305,1.3309,1.3187,1.3225,1.3174,1.3168,1.3181,1.318,1.3183,1.3258,1.3257,1.315,1.3152,1.3153,1.3154,0,0,0,0,0,0,0,1.3332,1.3333,1.336,1.331,1.33,1.3265,1.3258,1.3305,1.3232,1.3222,1.3211,1.3207,1.3176,1.318,1.3181,1.3256,1.315,1.3152,1.3154,1.3156,1.3428,1.3433,0,0,0,0,0,0,1.3343,1.3334,1.3362,1.3359,1.33,1.327,1.3262,1.3276,1.3231,1.3219,1.3212,1.3201,1.3177,1.3177,1.3179,1.3317,1.3153,1.3156,1.3158,1.3423,1.343,1.3435,0,0,0,0,0,0,1.3342,1.3347,1.3364,1.3344,1.3343,1.3276,1.3292,1.3278,1.3282,1.3224,1.321,1.3229,1.3173,1.3175,1.3241,1.3314,1.3157,1.316,1.3417,1.3425,1.3432,1.3595,0,0,0,0,0,0,1.3342,1.3347,1.3391,1.3346,1.3345,1.3425,1.3296,1.328,1.3287,1.3272,1.3237,1.3226,1.317,1.3237,1.3244,1.3315,1.3163,1.341,1.342,1.343,1.3583,1.3607,1.3629,0,0,0,0,0,1.3341,1.344,1.3394,1.3399,1.3398,1.343,1.3429,1.3361,1.3293,1.3338,1.33,1.3227,1.3304,1.3245,1.3252,1.3325,1.3405,1.3417,1.3429,1.3572,1.3603,1.3628,0,0,0,0,0,0,1.3498,1.3433,1.3381,1.3468,1.3455,1.3404,1.3458,1.3395,1.3402,1.3388,1.3305,1.3298,1.3377,1.3357,1.3292,1.3439,1.3343,1.3357,1.3449,1.3477,1.35,1.3503,1.3165,0,0,0,0,0,1.3542,1.3572,1.3513,1.3596,1.3592,1.3527,1.3538,1.3486,1.347,1.3465,1.3432,1.3421,1.3442,1.3459,1.3475,1.3579,1.357,1.3633,1.3656,1.3675,1.3688,1.3742,1.377,1.3475,1.3475,1.3475,0,0,1.3635,1.3603,1.3627,1.3627,1.361,1.3644,1.3523,1.3564,1.3589,1.3471,1.3531,1.3507,1.3489,1.3575,1.3611,1.3561,1.3767,1.369,1.3706,1.3709,1.3757,1.3785,1.381,1.3483,1.3482,1.348,0,0,1.3821,1.3799,1.3865,1.3851,1.3828,1.3784,1.38,1.3759,1.3738,1.3796,1.3709,1.3738,1.3777,1.3767,1.3768,1.3951,1.3884,1.3958,1.4079,1.4132,1.4156,1.4176,1.4242,1.4266,1.3972,1.3972,1.3972,0,1.394,1.3985,1.3908,1.3954,1.3957,1.385,1.3917,1.3908,1.3893,1.3898,1.3842,1.3888,1.3869,1.3951,1.3995,1.3999,1.4016,1.3962,1.4158,1.4178,1.4195,1.4257,1.4282,1.3981,1.398,1.3979,1.3979,0,1.4133,1.4166,1.4222,1.4208,1.4217,1.4274,1.4207,1.4226,1.4173,1.4136,1.4198,1.417,1.4179,1.4195,1.4145,1.427,1.424,1.4173,1.4074,1.4234,1.4291,1.4314,1.3995,1.3991,1.3989,1.3986,0,0,1.4417,1.4358,1.438,1.4372,1.4339,1.4364,1.4417,1.4424,1.4442,1.4435,1.4478,1.4513,1.445,1.4451,1.4399,1.4446,1.4593,1.4372,1.437,1.4415,1.4731,1.4782,1.4811,1.4548,1.4552,1.4555,1.4732,0,1.4594,1.4678,1.461,1.4708,1.4738,1.4637,1.4683,1.4668,1.4635,1.4657,1.462,1.4646,1.4561,1.4561,1.4603,1.4566,1.4655,1.4552,1.4589,1.4591,1.4597,1.484,1.4895,1.5063,1.4754,1.4758,1.476,0,1.4812,1.4813,1.4913,1.4873,1.4883,1.4925,1.4926,1.4948,1.493,1.4902,1.4903,1.4838,1.4889,1.4791,1.486,1.4792,1.4802,1.4787,1.4792,1.4793,1.4686,1.485,1.5115,1.5141,1.4795,1.4792,1.4789,0,1.501,1.5037,1.51,1.5096,1.505,1.5083,1.5066,1.5042,1.5051,1.5053,1.5058,1.5066,1.5072,1.508,1.502,1.4955,1.5097,1.4995,1.5077,1.5079,1.5112,1.5111,1.5385,1.5119,1.5118,1.5118,1.5117,0,1.5215,1.5281,1.5188,1.5227,1.5298,1.522,1.5293,1.5265,1.5245,1.5278,1.5192,1.5225,1.5143,1.5169,1.5122,1.5187,1.519,1.517,1.5157,1.5178,1.5181,1.5185,1.5172,1.5124,1.5123,1.5122,1.512,0,1.5449,1.5389,1.5451,1.5403,1.5392,1.5447,1.5405,1.544,1.54,1.5444,1.545,1.5388,1.5414,1.5354,1.5372,1.534,1.5433,1.5401,1.5439,1.5429,1.5515,1.5508,1.5801,1.5836,1.5548,1.555,1.5553,0,1.5584,1.5632,1.5588,1.5603,1.559,1.5615,1.5623,1.5549,1.5561,1.5544,1.5582,1.5599,1.5609,1.5655,1.5613,1.5626,1.5595,1.5696,1.5596,1.5616,1.5597,1.5595,1.56,1.5718,1.5721,1.5724,1.5726,0,1.5831,1.5798,1.5812,1.5817,1.5828,1.5828,1.5823,1.584,1.576,1.5779,1.5803,1.5811,1.5828,1.5847,1.5851,1.5834,1.5769,1.5758,1.5778,1.58,1.582,1.5811,1.5496,1.5752,1.5749,1.5747,1.5746,1.5745,1.6019,1.6057,1.6032,1.605,1.6038,1.6034,1.6065,1.6028,1.6046,1.6053,1.6008,1.6042,1.6023,1.602,1.6011,1.6038,1.5992,1.6021,1.6028,1.6037,1.6051,1.5816,1.6038,1.6038,1.6037,1.6036,1.6036,0,1.6262,1.624,1.6258,1.6251,1.6267,1.62,1.6191,1.6208,1.6239,1.6226,1.6237,1.6266,1.6284,1.6243,1.6256,1.6285,1.6255,1.6291,1.6288,1.6286,1.6091,1.6073,1.6315,1.6315,1.6315,1.6315,1.6315,1.6315,1.639,1.645,1.6415,1.6469,1.6447,1.6478,1.6478,1.6475,1.6464,1.6499,1.6513,1.6486,1.6462,1.6472,1.6487,1.6474,1.6483,1.653,1.6508,1.6327,1.63,1.6274,1.6256,1.6533,1.6533,1.67,1.6702,1.6703]}]]